Regional Weather Roundup
Issued by NWS

Home | Current Version | Previous Version | Graphics & Text | Print | Product List | Glossary On
Versions: 1 2 3 4 5 6 7 8 9 10 11 12 13 14 15 16 17 18 19 20 21 22 23 24 25 26 27 28 29 30 31 32 33 34 35 36 37 38 39 40 41 42 43 44 45 46 47 48 49 50
000
ASUS43 KMPX 251410
RWRMN
WEATHER ROUNDUP FOR MINNESOTA
NATIONAL WEATHER SERVICE TWIN CITIES/CHANHASSEN MN
900 AM CDT SUN SEP 25 2016


NOTE: "FAIR" INDICATES FEW OR NO CLOUDS BELOW 12,000 FEET WITH NO
SIGNIFICANT WEATHER AND/OR OBSTRUCTIONS TO VISIBILITY. N/A MEANS
CURRENT SKY AND/OR WEATHER CONDITIONS ARE NOT AVAILABLE.

MNZ060>063-068>070-251500-
   Twin Cities Metro

CITY           SKY/WX    TMP DP  RH WIND       PRES   REMARKS
TWIN CITIES    CLOUDY    63  60  90 W12       29.90R
ST PAUL        LGT RAIN  63  61  93 W7        29.90R
CRYSTAL        CLOUDY    61  53  75 SW10      29.88R
BLAINE         CLOUDY    64  64 100 SW9       29.88S
LAKEVILLE      CLOUDY    61  61 100 W8        29.91S
EDEN PRAIRIE   CLOUDY    62  58  86 SW9       29.90R
LAKEVILLE      CLOUDY    61  61 100 W8        29.91S
SOUTH ST PAUL  LGT RAIN  63  62  96 SW5       29.89S
LAKE ELMO      RAIN      63  61  94 W13       29.90S
$$
MNZ001>005-007-008-013>017-022>024-027-028-251500-
   Northwest Minnesota

CITY           SKY/WX    TMP DP  RH WIND       PRES   REMARKS
BEMIDJI        CLOUDY    59  55  85 SW12G18   29.74R
HALLOCK        SUNNY     55  54  94 S9        29.64F
ROSEAU         MOSUNNY   61  55  82 S15       29.68R
WARROAD        CLOUDY    63  59  88 S5        29.67S
THIEF RVR FALL SUNNY     54  49  83 SW15G23   29.72S
CROOKSTON      SUNNY     54  50  87 SW17      29.71S
FOSSTON        PTSUNNY   54  48  82 S14       29.74F
DETROIT LAKES  PTSUNNY   54  50  87 SW14      29.78S
MOORHEAD       PTSUNNY   54  52  94 SW9       29.77S
PARK RAPIDS    MOSUNNY   57  49  74 SW12G20   29.78R
MAHNOMEN       CLOUDY    53  50  87 SW18      29.75F
$$
MNZ006-009>011-018-025>026-251500-
   North Central Minnesota

CITY           SKY/WX    TMP DP  RH WIND       PRES   REMARKS
BAUDETTE       PTSUNNY   63  62  97 SE7       29.68F
FLAG ISLAND    CLOUDY    63  61  94 SE6       29.65F
INTL FALLS     CLOUDY    63  61  93 VRB7      29.72F
WASKISH        CLOUDY    64  63  94 S5        29.70F
BIG FORK       LGT RAIN  64  63  94 S6        29.75F
LONGVILLE      CLOUDY    59  55  88 S5        29.77F
GRAND RAPIDS   LGT RAIN  63  63 100 S7        29.78F
ORR            RAIN      63  59  88 S8        29.75F
COOK           DRIZZLE   63  61  94 SE7       29.78F
WALKER         FAIR      59  55  85 SW13      29.75F
$$
MNZ012-019>021-037-251500-
   Northeast Minnesota

CITY           SKY/WX    TMP DP  RH WIND       PRES   REMARKS
DULUTH         LGT RAIN  63  62  97 SE10      29.82F FOG
ELY            DRIZZLE   59  57  94 SE9G17    29.82F
HIBBING        LGT RAIN  62  60  93 VRB5      29.79F FOG
EVELETH        HVY RAIN  62  62  97 SE9G16    29.80F
DULUTH HARBOR  LGT RAIN  64  63  94 CALM      29.82F
TWO HARBORS    LGT RAIN  63  57  82 E5        29.83F
SILVER BAY     LGT RAIN  61  59  94 E6        29.85F
GRAND MARAIS     N/A     60  59  96 NE5       29.90F
G MARAIS ARPRT DRIZZLE   55  54  94 E6        29.92F
$$
MNZ029>031-032-039>041-046>048-054>057-064-251500-
   West Central Minnesota

CITY           SKY/WX    TMP DP  RH WIND       PRES   REMARKS
FERGUS FALLS   CLOUDY    54  52  94 SW13      29.81F
MORRIS         CLOUDY    55  52  88 S7        29.83F
ALEXANDRIA     CLOUDY    54  50  86 SW14      29.85F
ELBOW LAKE     CLOUDY    54  51  90 W12       29.82F
GLENWOOD       CLOUDY    54  50  87 SW16G22   29.85F
APPLETON       CLOUDY    59  52  77 W15G21    29.86S
BENSON         CLOUDY    55  48  76 W9G16     29.86F
MADISON          N/A     61  54  77 W15G21    29.88S
WILLMAR        FAIR      57  52  82 SW8       29.90F
$$
MNZ033>034-036-042>043-049>051-058-059-251500-
   Central Minnesota

CITY           SKY/WX    TMP DP  RH WIND       PRES   REMARKS
ST CLOUD       CLOUDY    58  54  86 SW10      29.86S
SAUK CENTRE    PTSUNNY   55  50  83 SW13G20   29.86S
PAYNESVILLE    PTSUNNY   56  52  88 SW13      29.88F
AITKIN         CLOUDY    66  61  82 S8        29.78F
PINE RIVER     CLOUDY    57  54  88 S7        29.82S
BRAINERD       CLOUDY    59  54  83 S9        29.80F
STAPLES        CLOUDY    55  48  76 SW12      29.81S
LONG PRAIRIE   FAIR      54  50  87 S12G17    29.84F
LITTLE FALLS   CLOUDY    55  50  82 SW7       29.84S
LITCHFIELD     PTSUNNY   57  54  88 SW5       29.90S
BUFFALO        CLOUDY    58  53  81 SW7       29.89S
MAPLE LAKE     PTSUNNY   59  55  85 SW8       29.89F
HUTCHINSON     SUNNY     57  52  84 SW6       29.92S
$$
MNZ037-044-045-052-053-251500-
   East Central Minnesota

CITY           SKY/WX    TMP DP  RH WIND       PRES   REMARKS
PRINCETON      CLOUDY    59  54  82 SW3       29.87R
MORA           LGT RAIN  59  55  88 S5        29.85F
CAMBRIDGE      LGT RAIN  64  61  88 S7        29.84S
MOOSE LAKE     RAIN      63  61  94 SW8       29.81F
HINCKLEY       RAIN      61  59  94 S5        29.84F
CLOQUET        RAIN      64  61  88 S6        29.82F
MCGREGOR       CLOUDY    63  61  94 S9        29.81F
$$
MNZ071>073-080-081-089-090-097-098-251500-
   Southwest Minnesota

CITY           SKY/WX    TMP DP  RH WIND       PRES   REMARKS
MONTEVIDEO     CLOUDY    57  54  88 W9G17     29.90S
GRANITE FALLS  SUNNY     58  51  78 SW15G21   29.91F
CANBY          MOSUNNY   59  51  76 W18G29    29.90S
MARSHALL       SUNNY     58  49  72 W22       29.90F
REDWOOD FALLS  SUNNY     57  49  74 SW14G23   29.91F
OLIVIA         SUNNY     55  50  82 SW9       29.90F
PIPESTONE      PTSUNNY   55  48  76 W13G18    29.96S
WINDOM         SUNNY     57  48  72 SW13      29.96F
WORTHINGTON    SUNNY     55  48  77 W15       29.99S
JACKSON        MOSUNNY   55  46  71 SW9       29.99S
TRACY          SUNNY     58  51  78 W20G29    29.94S
SLAYTON        SUNNY     54  48  82 W14G23    29.97S
$$
MNZ065>067-074>077-082>085-091>093-251500-
   South Central Minnesota

CITY           SKY/WX    TMP DP  RH WIND       PRES   REMARKS
MANKATO        CLOUDY    58  53  84 SW12      29.95S
NEW ULM        CLOUDY    55  54  94 SW7       29.94S
ST JAMES       PTSUNNY   57  52  82 SW8       29.98R
FAIRMONT       CLOUDY    57  51  80 W9        29.98S
GLENCOE        CLOUDY    57  57 100 SW9       29.92R
FARIBAULT      CLOUDY    61  61 100 W13G23    29.94R
OWATONNA       PTSUNNY   64  61  88 W14       29.95R
WASECA         CLOUDY    59  52  77 W9        29.97R
ALBERT LEA     CLOUDY    63  63 100 W5        29.95F
$$
MNZ078>079-086>088-094>096-251500-
   Southeast Minnesota

CITY           SKY/WX    TMP DP  RH WIND       PRES   REMARKS
ROCHESTER      LGT RAIN  68  67  96 SW13G21   29.93F FOG
RED WING       HVY RAIN  70  66  88 S6        29.88F
STANTON        LGT RAIN  64  62  90 W5        29.91S
DODGE CENTER   LGT RAIN  64  63  94 W15       29.94R
WINONA         CLOUDY    70  66  88 CALM      29.93F FOG
AUSTIN         LGT RAIN  63  61  94 W8G17     29.96R
PRESTON        CLOUDY    67  65  91 S10G17    29.95F FOG
$$
ABBREVIATIONS USED IN REMARKS
   TC - TEMPERATURES IN CELSIUS
  WCI - WIND CHILL INDEX
   HX - HEAT INDEX
  VSB - VISIBILITY
$$




USA.gov is the U.S. government's official web portal to all federal, state and local government web resources and services.